THORAD DELTA 1 DEB, 42612

Orbit data source: Space-Track

THORAD DELTA 1 DEB, 42612 is space debris in SSO originally from a launch on Fri, 15 Nov 1974 UTC launched from the Air Force Western Test Range (AFWTR). Debris objects in space refer to the collection of defunct objects orbiting the Earth. Examples of debris include non-operational satellites, rocket bodies, and fragments generated from explosions, collisions, or faulty payload assembly.

Loading next visibility...
Identifier
42612, 1974-089GD
Orbit
SSO
Country
Flag of USUS
Related business
Manufacturer
Unknown
Mission
Spacecraft
Bus & Motor
Unknown
Mass
Unknown
Launch date (UTC)
1974-11-15 (51 years ago)
Launch vehicle
Unknown
Launch site
Air Force Western Test Range (AFWTR)
Object type
Payload
Rocket body
Debris
Shape & HBR
Unknown shape, 0.1 m
Radar Cross Section
Small (<0.1 m²)

Expand to show TLE details & history
Last TLE update: 2 weeks ago

TLE from 2 weeks ago
0 THORAD DELTA 1 DEB
1 42612U 74089GD  26114.73482119  .00000037  00000-0  41472-3 0  9993
2 42612 101.6159 113.9379 0085288 154.1351 206.4031 12.69890357555870
Epoch: 2026-04-24T17:38Z
TLE epoch observation values (Epoch: 2026-04-24T17:38:08.550Z)
Latitude
-0.00002°
Longitude
-3.36101°
Altitude
1,444.396 km
Speed
7.112 km/s
True Right ascension
07h 35m 45s
True Declination
0° 00' 00"
Sunlit
Object was in daylight at epoch
Visualization orbit readout
Latitude
Unknown
Longitude
Unknown
Altitude
Unknown
Speed
Unknown
Apparent Right ascension
Unknown
Apparent Declination
Unknown
Sunlit
N/A
Visualization observer readout
Local Sidereal Time
17:46:07
Azimuth
Unknown
Elevation
Unknown
Doppler factor
Unknown
Orbital elements
Apogee altitude
1,446.066 km
Perigee altitude
1,313.733 km
Semi-major axis
7,758.036 km
Eccentricity
0.00853
Inclination
101.6159°
RAAN
113.9379°
Arg. of periapsis
154.1351°
True anomaly
205.97261°
Mean anomaly
206.4031°
Eccentric anomaly
206.18745°
Mean motion
3.17626 °/min
Orbital period
113.34 mins
BSTAR
0.00041472
Loading maneuver chart data...
Computing Atmospheric mass density...

Documentation

Showing up to 5 results
|